Location: Unspecified
(0.0000°N, 0.0000°E)
Time: 19:30:51
(UTC+00:00)

Hubble Space Telescope - Pass Details

Date: 10 November 2025
Orbit: 482 x 485 km, 28.5° (Epoch: 06 November)

Event Time Altitude Azimuth Distance (km) Brightness Sun altitude
Exits shadow 04:32:51 - 217° (SW) 2,023 3.5 -16.9°
Reaches altitude 10° 04:33:55 10° 210° (SSW) 1,651 3.1 -16.7°
Maximum altitude 04:37:11 27° 150° (SSE) 951 2.5 -15.9°
Drops below altitude 10° 04:40:26 10° 91° (E) 1,649 4.5 -15.1°
Sets 04:42:52 0° 79° (ENE) 2,526 5.3 -14.6°
